Location: Newark
(38.2561°N, 85.7581°W)
Time: 19:40:33
(UTC+00:00)

LightSail 2 - Visible Passes

Search period start: 11 November 2019 00:00
Search period end: 21 November 2019 00:00
Orbit: 702 x 726 km, 24.0° (Epoch: 10 November)

Date Brightness Start Highest point End Pass type
(mag) Time Alt. Az. Time Alt. Az. Time Alt. Az.
11 Nov 7.4 10:08:34 13° S 10:09:55 14° S 10:12:28 10° SE visible
11 Nov 7.5 11:51:29 10° SW 11:54:41 16° S 11:57:52 10° SE visible
12 Nov 7.4 10:53:50 10° SW 10:57:01 16° S 11:00:13 10° SE visible
13 Nov 7.3 09:59:14 16° S 09:59:21 16° S 10:02:26 10° SE visible
13 Nov 7.4 11:41:13 10° SW 11:44:07 15° S 11:47:02 10° SSE visible
14 Nov 7.3 10:44:00 12° SW 10:46:27 16° S 10:49:34 10° SSE visible
15 Nov 7.4 09:49:46 16° SSE 09:49:46 16° SSE 09:51:57 10° SE visible
15 Nov 7.5 11:31:26 10° SW 11:33:31 12° SSW 11:35:36 10° SSE visible
16 Nov 7.3 10:34:29 13° SSW 10:35:51 14° S 10:38:30 10° SSE visible
17 Nov 7.6 09:40:12 12° SSE 09:40:12 12° SSE 09:41:07 10° SSE visible
18 Nov 7.5 10:24:54 11° SSW 10:25:10 11° SSW 10:26:35 10° S visible
